Regional Weather Roundup
Issued by NWS

Home | Current Version | Previous Version | Text Only | Print | Product List | Glossary Off
Versions: 1 2 3 4 5 6 7 8 9 10 11 12 13 14 15 16 17 18 19 20 21 22 23 24 25 26 27 28 29 30 31 32 33 34 35 36 37 38 39 40 41 42 43 44 45 46 47 48 49 50

000
ASUS43 KOAX 250510
RWRNE

WEATHER ROUNDUP FOR NEBRASKA
NATIONAL WEATHER SERVICE OMAHA NE
1200 AM CDT MON MAY 25 2015

NOTES: SATELLITE DATA IS BEING USED TO AUGMENT CLOUD COVER ABOVE
       12000 FEET.
       "FAIR" INDICATES FEW OR NO CLOUDS BELOW 12,000 FEET WITH NO
       SIGNIFICANT WEATHER AND/OR OBSTRUCTIONS TO VISIBILITY.

  * THESE STATIONS DO NOT REPORT WEATHER SUCH AS RAIN...SNOW OR FOG.

NEZ001>004-019>022-054>056-250600-
NEBRASKA PANHANDLE

CITY           SKY/WX    TMP DP  RH WIND       PRES   REMARKS
SCOTTSBLUFF    CLOUDY    53  50  89 S6        29.85R
ALLIANCE       LGT RAIN  52  48  86 E15       29.84R
CHADRON        LGT RAIN  54  50  86 SE12      29.82F
KIMBALL          N/A    N/A N/A N/A MISG        N/A
SIDNEY         CLOUDY    52  47  83 NE8       29.84F
$$

NEZ057>060-069>072-079>082-250600-
SOUTHWEST NEBRASKA

CITY           SKY/WX    TMP DP  RH WIND       PRES   REMARKS
NORTH PLATTE   CLOUDY    53  51  93 CALM      29.80F
IMPERIAL       CLOUDY    52  50  93 SE7       29.79F
LEXINGTON      LGT RAIN  56  53  88 NW7       29.81S
MCCOOK         CLOUDY    54  51  90 CALM      29.80F
OGALLALA       DRIZZLE   52  51  97 CALM      29.80F
$$

NEZ005>010-023>029-035>040-094-250600-
NORTH CENTRAL NEBRASKA

CITY           SKY/WX    TMP DP  RH WIND       PRES   REMARKS
VALENTINE      CLOUDY    59  56  89 NE6       29.82S
AINSWORTH      CLOUDY    58  58 100 E8        29.82S
BROKEN BOW     CLOUDY    58  56  93 CALM      29.80S
O`NEILL        CLOUDY    60  59  99 CALM      29.81F FOG
ORD            MOCLDY    57  55  93 CALM      29.79S
THEDFORD       CLOUDY    59  57  94 E3        29.81F
$$

NEZ041-046>049-061>064-073>077-083>087-250600-
SOUTH CENTRAL NEBRASKA

CITY           SKY/WX    TMP DP  RH WIND       PRES   REMARKS
GRAND ISLAND   PTCLDY    59  57  93 S6        29.80S
AURORA         CLOUDY    62  62  99 S6        29.80S
HASTINGS       MOCLDY    61  59  93 S7        29.80S
HEBRON         CLOUDY    61  59  91 SW6       29.81R
HOLDREGE       MOCLDY    59  58  94 S3        29.81F
KEARNEY *      MOCLDY    57  55  94 S5        29.81F
YORK           MOCLDY    61  59  94 SW3       29.80F
$$

NEZ011>018-030>034-042>045-250600-
NORTHEAST NEBRASKA

CITY           SKY/WX    TMP DP  RH WIND       PRES   REMARKS
NORFOLK        CLOUDY    60  59  96 CALM      29.78F
ALBION         PTCLDY    58  55  92 CALM      29.79S
BLAIR          CLOUDY    63  59  88 SW6       29.78S
COLUMBUS *     CLOUDY    63  55  77 SW5       29.82F
FREMONT        CLOUDY    64  61  91 SW5       29.79S
TEKAMAH        CLOUDY    64  62  93 CALM      29.77F
WAYNE          CLOUDY    59  58  97 SW3       29.79S FOG
$$

NEZ050>053-065>068-078-088>093-250600-
SOUTHEAST NEBRASKA

CITY           SKY/WX    TMP DP  RH WIND       PRES   REMARKS
LINCOLN        CLOUDY    62  60  93 CALM      29.80F
OMAHA EPPLEY   CLOUDY    66  61  84 SW6       29.78S
BEATRICE       CLOUDY    62  60  95 CALM      29.80F
FALLS CITY     CLOUDY    63  61  93 S6        29.81S
NEBRASKA CITY  CLOUDY    63  62  99 SW5       29.81R
PLATTSMOUTH    CLOUDY    63  59  88 SW3       29.81R
$$

NEZ044-045-051>053-067-250600-
OMAHA AREA

CITY           SKY/WX    TMP DP  RH WIND       PRES   REMARKS
OMAHA EPPLEY   CLOUDY    66  61  84 SW6       29.78S
BLAIR          CLOUDY    63  59  88 SW6       29.78S
FREMONT        CLOUDY    64  61  91 SW5       29.79S
MILLARD        CLOUDY    65  61  85 CALM      29.79S
OFFUTT AFB     CLOUDY    63  61  91 S5        29.78S
PLATTSMOUTH    CLOUDY    63  59  88 SW3       29.81R
WAHOO          CLOUDY    64  61  88 SW5       29.79F
$$


USA.gov is the U.S. government's official web portal to all federal, state and local government web resources and services.